Retour au catalogue

CSTP-4.3

ActifScienceSSO
NORAD 64882·PAYLOAD·🇷🇺 Russia
Ce nom de satellite n'a pas encore été confirmé par des sources officielles.

Lancé Jul 25, 2025 depuis Vostochny Cosmodrome

Loading…

Prochains Passages (prochaines 24 heures)

TLE

FraisSource: Space-Track

Époque: Sep 14, 2026, 22:41 UTC

1 64882U 25155G   26257.94530677  .00008824  00000-0  29805-3 0  9998
2 64882  97.4694 226.9034 0005919 204.5455 155.5505 15.30891257 94486

Suivez CSTP-4.3 en temps réel avec AllMySat

Download on the App Store